When you browse on this site, cookies collect data to enhance your experience and personalize the content and advertising you see.
Visit our Privacy Policy to learn more. By continuing to use the site, you agree to this use of cookies and data.
  • In Hungary
  • List of Countries
  • For 7 days
  • Water Temperature
  • Satellite Maps
  • Weather Map
  • News
  • Weather Widgets
  • user-avatar
    Login

    Hourly Weather Mihalkovo

    Today, 24 January, Thursday

    Time Temperature Precipitation Wind Pressure Humidity
    00:00 -18°C° 0 mm 3 mps 750 mmHg 96%
    01:00 -18°C° 0 mm 3 mps 750 mmHg 96%
    02:00 -17°C° 0 mm 2 mps 750 mmHg 96%
    03:00 -18°C° 0 mm 2 mps 750 mmHg 97%
    04:00 -18°C° 0 mm 2 mps 750 mmHg 97%
    05:00 -19°C° 0 mm 2 mps 749 mmHg 97%
    06:00 -19°C° 0 mm 2 mps 749 mmHg 98%
    07:00 -20°C° 0 mm 2 mps 749 mmHg 98%
    08:00 -21°C° 0 mm 2 mps 748 mmHg 98%
    09:00 -19°C° 0 mm 2 mps 748 mmHg 96%
    10:00 -18°C° 0 mm 2 mps 748 mmHg 95%
    11:00 -18°C° 0 mm 3 mps 748 mmHg 93%
    12:00 -17°C° 0.1 mm 3 mps 748 mmHg 93%
    13:00 -16°C° 0.1 mm 3 mps 748 mmHg 93%
    14:00 -15°C° 0.1 mm 3 mps 747 mmHg 93%
    15:00 -14°C° 0.1 mm 2 mps 748 mmHg 94%
    16:00 -14°C° 0.1 mm 2 mps 748 mmHg 94%
    17:00 -14°C° 0.1 mm 2 mps 749 mmHg 95%
    18:00 -14°C° 0 mm 2 mps 749 mmHg 95%
    19:00 -15°C° 0 mm 2 mps 750 mmHg 95%
    20:00 -16°C° 0 mm 2 mps 750 mmHg 95%
    21:00 -17°C° 0 mm 2 mps 751 mmHg 96%
    22:00 -18°C° 0 mm 2 mps 751 mmHg 96%
    23:00 -19°C° 0 mm 2 mps 752 mmHg 97%

    Tomorrow, 25 January, Friday

    Time Temperature Precipitation Wind Pressure Humidity
    00:00 -20°C° 0 mm 2 mps 753 mmHg 97%
    01:00 -21°C° 0 mm 2 mps 753 mmHg 98%
    02:00 -19°C° 0 mm 1 mps 754 mmHg 98%
    03:00 -19°C° 0 mm 1 mps 754 mmHg 98%
    04:00 -20°C° 0 mm 1 mps 755 mmHg 99%
    05:00 -20°C° 0 mm 1 mps 755 mmHg 99%
    06:00 -20°C° 0 mm 1 mps 756 mmHg 99%
    07:00 -21°C° 0 mm 1 mps 756 mmHg 99%
    08:00 -21°C° 0 mm 1 mps 757 mmHg 99%
    09:00 -19°C° 0 mm 1 mps 757 mmHg 97%
    10:00 -17°C° 0 mm 0 mps 757 mmHg 95%
    11:00 -16°C° 0 mm 0 mps 757 mmHg 92%
    12:00 -15°C° 0 mm 0 mps 758 mmHg 93%
    13:00 -15°C° 0 mm 0 mps 758 mmHg 93%
    14:00 -14°C° 0 mm 0 mps 758 mmHg 94%
    15:00 -16°C° 0 mm 0 mps 758 mmHg 95%
    16:00 -17°C° 0 mm 0 mps 758 mmHg 96%
    17:00 -19°C° 0 mm 0 mps 758 mmHg 97%
    18:00 -18°C° 0 mm 1 mps 758 mmHg 96%
    19:00 -18°C° 0 mm 1 mps 758 mmHg 95%
    20:00 -18°C° 0 mm 1 mps 758 mmHg 95%
    21:00 -18°C° 0 mm 1 mps 757 mmHg 94%
    22:00 -17°C° 0 mm 1 mps 757 mmHg 94%
    23:00 -17°C° 0 mm 1 mps 757 mmHg 93%

    Day after tomorrow, 26 January, Saturday

    Time Temperature Precipitation Wind Pressure Humidity
    00:00 -17°C° 0 mm 1 mps 757 mmHg 93%
    01:00 -17°C° 0 mm 1 mps 756 mmHg 93%
    02:00 -18°C° 0 mm 2 mps 756 mmHg 93%
    03:00 -18°C° 0 mm 2 mps 755 mmHg 93%
    04:00 -18°C° 0 mm 2 mps 755 mmHg 92%
    05:00 -18°C° 0 mm 2 mps 754 mmHg 91%
    06:00 -19°C° 0 mm 3 mps 754 mmHg 90%
    07:00 -19°C° 0 mm 3 mps 753 mmHg 89%
    08:00 -18°C° 0 mm 3 mps 752 mmHg 88%
    09:00 -19°C° 0 mm 4 mps 751 mmHg 86%
    10:00 -18°C° 0 mm 4 mps 751 mmHg 85%
    11:00 -17°C° 0 mm 4 mps 750 mmHg 83%
    12:00 -17°C° 0.5 mm 4 mps 749 mmHg 87%
    13:00 -17°C° 0.5 mm 4 mps 748 mmHg 90%
    14:00 -17°C° 0.5 mm 4 mps 747 mmHg 94%
    15:00 -17°C° 0.3 mm 4 mps 746 mmHg 94%
    16:00 -17°C° 0.3 mm 4 mps 745 mmHg 94%
    17:00 -17°C° 0.3 mm 4 mps 744 mmHg 94%
    18:00 -15°C° 0.4 mm 3 mps 743 mmHg 94%
    19:00 -15°C° 0.4 mm 3 mps 743 mmHg 94%
    20:00 -14°C° 0.4 mm 3 mps 742 mmHg 94%
    21:00 -14°C° 0.4 mm 3 mps 742 mmHg 95%
    22:00 -13°C° 0.4 mm 3 mps 741 mmHg 95%
    23:00 -10°C° 0.4 mm 2 mps 740 mmHg 95%

    27 January, Sunday

    Time Temperature Precipitation Wind Pressure Humidity
    00:00 -10°C° 0.3 mm 2 mps 740 mmHg 96%
    01:00 -9°C° 0.3 mm 2 mps 739 mmHg 96%
    02:00 -9°C° 0.3 mm 2 mps 739 mmHg 96%
    03:00 -8°C° 0.2 mm 2 mps 739 mmHg 96%
    04:00 -7°C° 0.2 mm 1 mps 738 mmHg 96%
    05:00 -7°C° 0.2 mm 1 mps 738 mmHg 97%
    06:00 -7°C° 0.3 mm 1 mps 737 mmHg 97%
    07:00 -7°C° 0.3 mm 1 mps 737 mmHg 97%
    08:00 -7°C° 0.3 mm 1 mps 737 mmHg 97%
    09:00 -7°C° 0.2 mm 1 mps 737 mmHg 96%
    10:00 -7°C° 0.2 mm 1 mps 737 mmHg 96%
    11:00 -7°C° 0.2 mm 1 mps 737 mmHg 96%
    12:00 -8°C° 0.2 mm 2 mps 737 mmHg 96%
    13:00 -8°C° 0.2 mm 2 mps 737 mmHg 95%
    14:00 -8°C° 0.2 mm 2 mps 737 mmHg 95%
    15:00 -10°C° 0.2 mm 3 mps 737 mmHg 95%
    16:00 -10°C° 0.2 mm 3 mps 737 mmHg 95%
    17:00 -12°C° 0.2 mm 3 mps 737 mmHg 95%
    18:00 -12°C° 0.1 mm 3 mps 737 mmHg 95%
    19:00 -13°C° 0.1 mm 3 mps 737 mmHg 95%
    20:00 -13°C° 0.1 mm 3 mps 738 mmHg 95%
    21:00 -13°C° 0.1 mm 3 mps 738 mmHg 95%
    22:00 -13°C° 0.1 mm 3 mps 738 mmHg 96%
    23:00 -13°C° 0.1 mm 3 mps 739 mmHg 96%

    28 January, Monday

    Time Temperature Precipitation Wind Pressure Humidity
    00:00 -13°C° 0.1 mm 3 mps 739 mmHg 96%
    01:00 -13°C° 0.1 mm 3 mps 739 mmHg 95%
    02:00 -13°C° 0.1 mm 3 mps 740 mmHg 95%
    03:00 -13°C° 0 mm 3 mps 740 mmHg 95%
    04:00 -12°C° 0 mm 2 mps 741 mmHg 95%
    05:00 -12°C° 0 mm 2 mps 741 mmHg 95%
    06:00 -12°C° 0 mm 2 mps 741 mmHg 96%
    07:00 -13°C° 0 mm 2 mps 742 mmHg 96%
    08:00 -13°C° 0 mm 2 mps 742 mmHg 96%
    09:00 -13°C° 0 mm 2 mps 743 mmHg 95%
    10:00 -12°C° 0 mm 2 mps 743 mmHg 94%
    11:00 -12°C° 0 mm 2 mps 744 mmHg 94%
    12:00 -10°C° 0 mm 1 mps 744 mmHg 93%
    13:00 -10°C° 0 mm 1 mps 744 mmHg 93%
    14:00 -10°C° 0 mm 1 mps 744 mmHg 92%
    15:00 -11°C° 0 mm 1 mps 745 mmHg 94%
    16:00 -12°C° 0 mm 1 mps 745 mmHg 95%
    17:00 -13°C° 0 mm 0 mps 745 mmHg 97%
    18:00 -14°C° 0 mm 1 mps 745 mmHg 97%
    19:00 -14°C° 0 mm 1 mps 745 mmHg 97%
    20:00 -14°C° 0 mm 1 mps 745 mmHg 98%
    21:00 -15°C° 0 mm 1 mps 745 mmHg 97%
    22:00 -15°C° 0 mm 1 mps 745 mmHg 97%
    23:00 -17°C° 0 mm 2 mps 745 mmHg 97%

    29 January, Tuesday

    Time Temperature Precipitation Wind Pressure Humidity
    00:00 -17°C° 0 mm 2 mps 745 mmHg 96%
    01:00 -16°C° 0 mm 2 mps 745 mmHg 95%
    02:00 -15°C° 0 mm 2 mps 745 mmHg 94%
    03:00 -15°C° 0.1 mm 2 mps 745 mmHg 94%
    04:00 -15°C° 0.1 mm 2 mps 744 mmHg 95%
    05:00 -14°C° 0.1 mm 2 mps 744 mmHg 95%
    06:00 -14°C° 0 mm 2 mps 744 mmHg 95%
    07:00 -13°C° 0 mm 2 mps 744 mmHg 95%
    08:00 -12°C° 0 mm 2 mps 744 mmHg 94%
    09:00 -10°C° 0 mm 2 mps 744 mmHg 95%
    10:00 -10°C° 0 mm 3 mps 744 mmHg 95%
    11:00 -9°C° 0 mm 3 mps 744 mmHg 95%
    12:00 -8°C° 0 mm 3 mps 744 mmHg 95%
    13:00 -7°C° 0 mm 3 mps 744 mmHg 95%
    14:00 -6°C° 0 mm 3 mps 744 mmHg 94%
    15:00 -5°C° 0 mm 3 mps 744 mmHg 94%
    16:00 -5°C° 0 mm 3 mps 744 mmHg 94%
    17:00 -5°C° 0 mm 3 mps 745 mmHg 94%
    18:00 -4°C° 0 mm 3 mps 745 mmHg 94%
    19:00 -4°C° 0 mm 3 mps 745 mmHg 94%
    20:00 -4°C° 0 mm 3 mps 745 mmHg 94%
    21:00 -4°C° 0 mm 3 mps 745 mmHg 94%
    22:00 -4°C° 0 mm 3 mps 745 mmHg 94%
    23:00 -4°C° 0 mm 3 mps 745 mmHg 94%
    Show more